This demonstration page uses our WeatherBlox Daily Observations layout. Learn more.

Left ArrowRight Arrow

Hourly Observations for October 31, 2018

Temp ( °F °C ) Dew Point ( °F °C ) Humidity (%) Winds ( mph kmh ) Pressure ( in mb ) Visibility ( mi km ) Precip ( " mm )
12:53 am 00:53 Partly Cloudy 44 6.7 36 2.2 73 73 Calm 30.07 1018 10 16 0.00 0.00
1:53 am 01:53 Clear 42 5.6 36 2.2 79 79 NW 3 6 30.07 1018 10 16 0.00 0.00
2:53 am 02:53 Clear 39 3.9 34 1.1 82 82 WNW 3 6 30.08 1019 10 16 0.00 0.00
3:53 am 03:53 Mostly Cloudy 39 3.9 34 1.1 82 82 NW 3 6 30.07 1018 10 16 0.00 0.00
4:53 am 04:53 Clear 41 5 36 2.2 82 82 WNW 5 7 30.08 1019 10 16 0.00 0.00
5:53 am 05:53 Mostly Cloudy 42 5.6 36 2.2 79 79 W 5 7 30.11 1020 10 16 0.00 0.00
6:53 am 06:53 Mostly Clear 42 5.6 36 2.2 79 79 WNW 3 6 30.12 1020 10 16 0.00 0.00
7:53 am 07:53 Partly Cloudy 42 5.6 36 2.2 79 79 W 3 6 30.13 1020 10 16 0.00 0.00
8:53 am 08:53 Sunny 42 5.6 36 2.2 79 79 WNW 3 6 30.14 1021 10 16 0.00 0.00
9:53 am 09:53 Sunny 45 7.2 36 2.2 71 71 NW 7 11 30.14 1021 10 16 0.00 0.00
10:53 am 10:53 Sunny 49 9.4 36 2.2 61 61 N 6 9 30.13 1020 10 16 0.00 0.00
11:53 am 11:53 Sunny 53 11.7 36 2.2 52 52 NNW 8 13 30.13 1020 10 16 0.00 0.00
12:53 pm 12:53 Sunny 54 12.2 35 1.7 49 49 NNW 7 11 30.11 1020 10 16 0.00 0.00
1:53 pm 13:53 Sunny 56 13.3 33 0.6 42 42 N 6 9 30.08 1019 10 16 0.00 0.00
2:53 pm 14:53 Sunny 58 14.4 31 -0.6 36 36 NW 7 11 30.04 1017 10 16 0.00 0.00
3:53 pm 15:53 Mostly Cloudy 58 14.4 30 -1.1 35 35 WNW 8 13 30.04 1017 10 16 0.00 0.00
4:53 pm 16:53 Mostly Sunny 57 13.9 30 -1.1 36 36 NW 7 11 30.02 1017 10 16 0.00 0.00
5:53 pm 17:53 Mostly Sunny 54 12.2 31 -0.6 42 42 NW 6 9 30.01 1016 10 16 0.00 0.00
6:53 pm 18:53 Clear 49 9.4 31 -0.6 50 50 NW 3 6 30.00 1016 10 16 0.00 0.00
7:53 pm 19:53 Hazy 41 5 31 -0.6 67 67 NE 3 6 30.03 1017 6 10 0.00 0.00
8:53 pm 20:53 Clear 43 6.1 32 0 65 65 Calm 30.02 1017 8 13 0.00 0.00
9:53 pm 21:53 Clear 40 4.4 31 -0.6 70 70 Calm 30.01 1016 10 16 0.00 0.00
10:53 pm 22:53 Clear 38 3.3 30 -1.1 73 73 Calm 30.01 1016 10 16 0.00 0.00
11:53 pm 23:53 Clear 37 2.8 31 -0.6 79 79 Calm 30.00 1016 10 16 0.00 0.00

Powered by AerisWeather